TimeMDT,TemperatureF,Dew PointF,Humidity,Sea Level PressureIn,VisibilityMPH,Wind Direction,Wind SpeedMPH,Gust SpeedMPH,PrecipitationIn,Events,Conditions,WindDirDegrees,DateUTC
12:53 AM,63.0,57.0,81,29.76,10.0,Calm,Calm,-,N/A,,Clear,0,2013-09-15 06:53:00
1:53 AM,64.0,57.0,78,29.77,10.0,SSW,6.9,-,N/A,,Mostly Cloudy,200,2013-09-15 07:53:00
2:53 AM,64.9,57.9,78,29.77,10.0,NW,4.6,-,N/A,,Mostly Cloudy,310,2013-09-15 08:53:00
3:53 AM,63.0,57.9,84,29.80,8.0,NE,8.1,-,0.00,Rain,Light Rain,50,2013-09-15 09:53:00
4:53 AM,62.1,57.9,86,29.84,10.0,North,5.8,-,0.00,,Clear,360,2013-09-15 10:53:00
5:53 AM,61.0,57.0,87,29.87,10.0,Calm,Calm,-,N/A,,Clear,0,2013-09-15 11:53:00
6:53 AM,61.0,57.0,87,29.91,10.0,NW,5.8,-,N/A,,Clear,310,2013-09-15 12:53:00
7:53 AM,64.9,57.9,78,29.93,10.0,NNW,11.5,-,N/A,,Scattered Clouds,330,2013-09-15 13:53:00
8:04 AM,64.4,57.2,77,30.06,10.0,NNW,11.5,-,N/A,,Mostly Cloudy,330,2013-09-15 14:04:00
8:53 AM,66.0,57.9,75,29.98,10.0,NNW,13.8,-,N/A,,Overcast,340,2013-09-15 14:53:00
9:53 AM,66.9,59.0,76,30.01,10.0,NNW,6.9,27.6,N/A,,Overcast,340,2013-09-15 15:53:00
10:53 AM,66.9,57.9,73,30.03,10.0,NNE,10.4,-,N/A,,Overcast,20,2013-09-15 16:53:00
11:53 AM,69.1,59.0,70,30.02,10.0,North,10.4,-,N/A,,Overcast,10,2013-09-15 17:53:00
12:33 PM,69.8,57.2,64,30.11,10.0,NNE,15.0,-,N/A,,Overcast,30,2013-09-15 18:33:00
12:53 PM,70.0,57.9,65,30.03,10.0,NNE,10.4,-,N/A,,Mostly Cloudy,30,2013-09-15 18:53:00
1:19 PM,69.8,60.8,73,30.14,10.0,NNE,12.7,19.6,N/A,,Overcast,30,2013-09-15 19:19:00
1:41 PM,69.8,60.8,73,30.14,10.0,NE,15.0,-,N/A,,Overcast,50,2013-09-15 19:41:00
1:53 PM,72.0,60.1,66,29.99,10.0,NE,20.7,-,N/A,,Mostly Cloudy,40,2013-09-15 19:53:00
2:14 PM,71.6,59.0,64,30.14,10.0,NE,12.7,-,N/A,,Mostly Cloudy,40,2013-09-15 20:14:00
2:53 PM,69.1,60.1,73,30.03,10.0,ENE,13.8,-,N/A,,Overcast,70,2013-09-15 20:53:00
3:34 PM,66.2,60.8,83,30.14,10.0,ENE,12.7,-,N/A,,Overcast,70,2013-09-15 21:34:00
3:53 PM,69.1,60.1,73,30.03,10.0,ENE,13.8,-,N/A,,Overcast,60,2013-09-15 21:53:00
4:53 PM,64.9,60.1,84,30.05,10.0,ENE,17.3,21.9,N/A,,Overcast,70,2013-09-15 22:53:00
5:51 PM,62.6,59.0,88,30.18,4.0,ENE,13.8,-,0.01,Rain,Light Rain,70,2013-09-15 23:51:00
5:53 PM,62.1,59.0,90,30.08,4.0,East,13.8,-,0.02,Rain,Light Rain,80,2013-09-15 23:53:00
6:09 PM,62.6,60.8,94,30.18,5.0,ENE,12.7,-,0.01,Rain,Light Rain,70,2013-09-16 00:09:00
6:53 PM,61.0,57.9,90,30.10,8.0,ENE,15.0,-,0.02,,Overcast,60,2013-09-16 00:53:00
7:03 PM,60.8,57.2,88,30.19,9.0,ENE,12.7,-,N/A,,Overcast,60,2013-09-16 01:03:00
7:10 PM,60.8,57.2,88,30.20,9.0,ENE,13.8,-,N/A,,Overcast,60,2013-09-16 01:10:00
7:20 PM,60.8,57.2,88,30.19,9.0,ENE,13.8,-,N/A,,Overcast,60,2013-09-16 01:20:00
7:49 PM,60.8,57.2,88,30.21,6.0,ENE,11.5,-,0.00,Rain,Light Rain,70,2013-09-16 01:49:00
7:53 PM,60.1,57.9,93,30.13,6.0,ENE,12.7,-,0.00,Rain,Light Rain,60,2013-09-16 01:53:00
8:38 PM,59.0,57.2,94,30.23,7.0,ENE,9.2,-,0.01,Rain,Light Rain,60,2013-09-16 02:38:00
8:51 PM,59.0,57.2,94,30.24,7.0,East,9.2,-,0.01,Rain,Light Rain,80,2013-09-16 02:51:00
8:53 PM,59.0,57.0,93,30.14,7.0,East,10.4,-,0.01,Rain,Light Rain,80,2013-09-16 02:53:00
8:59 PM,59.0,57.2,94,30.24,4.0,ENE,9.2,-,0.02,Rain,Rain,70,2013-09-16 02:59:00
9:19 PM,57.2,55.4,94,30.24,3.0,ENE,13.8,-,0.05,Rain,Rain,60,2013-09-16 03:19:00
9:53 PM,57.9,55.9,93,30.15,5.0,ENE,9.2,-,0.05,Rain,Light Rain,70,2013-09-16 03:53:00
10:53 PM,57.0,55.0,93,30.16,8.0,East,9.2,-,0.01,,Overcast,80,2013-09-16 04:53:00
11:53 PM,57.0,55.0,93,30.15,5.0,ENE,5.8,-,N/A,,Overcast,60,2013-09-16 05:53:00